STARLINK-1726, 46362

Orbit data source: Space-Track

STARLINK-1726, 46362 is a payload satellite owned by SpaceX/Seattle (US) in LEO that was launched on Thu, 03 Sep 2020 UTC via an FALCON 9 launch vehicle from the Air Force Eastern Test Range (AFETR). Payload-class satellites include a variety of spacecraft equipped with specific instruments for various scientific and technological missions. These include communications satellites like Starlink; space stations such as the ISS; scientific satellites like the Hubble; Earth observation satellites from companies like Planet Labs, Umbra, and HawkEye 360; GPS; miniature CubeSats for education and research; and military/defense satellites.

Loading next visibility...
Identifier
46362, 2020-062AP
Orbit
LEO
Country
Flag of USUS
Related business
Manufacturer
SpaceX/Seattle
Mission
Partially operational Commercial Communications
Bus & Motor
STARLINK, Unknown motor
Mass
260 kg wet, ~248 kg dry
Launch date (UTC)
2020-09-03 (5 years ago)
Launch vehicle
FALCON 9
Launch site
Air Force Eastern Test Range (AFETR)
Object type
Payload
Rocket body
Debris
Shape & HBR
Box + 1 Pan, 10.1 m
Radar Cross Section
13.562 m², Large (>1 m²)

Expand to show TLE details & history
Last TLE update: 7 hours ago

TLE from 7 hours ago
0 STARLINK-1726
1 46362U 20062AP  25303.89374195  .00130133  00000-0  30550-2 0  9996
2 46362  53.0538 174.2306 0012688  94.1252 266.1202 15.41026491285667
Epoch: 2025-10-30T21:26Z
TLE epoch observation values (Epoch: 2025-10-30T21:26:59.304Z)
Latitude
-0.00006°
Longitude
173.03747°
Altitude
444.568 km
Speed
7.646 km/s
True Right ascension
11h 36m 55s
True Declination
0° 00' 00"
Sunlit
Object was in daylight at epoch
Visualization orbit readout
Latitude
Unknown
Longitude
Unknown
Altitude
Unknown
Speed
Unknown
Apparent Right ascension
Unknown
Apparent Declination
Unknown
Sunlit
N/A
Visualization observer readout
Local Sidereal Time
23:45:24
Azimuth
Unknown
Elevation
Unknown
Doppler factor
Unknown
Orbital elements
Apogee altitude
452.008 km
Perigee altitude
434.698 km
Semi-major axis
6,821.49 km
Eccentricity
0.00127
Inclination
53.0538°
RAAN
174.2306°
Arg. of periapsis
94.1252°
True anomaly
265.97516°
Mean anomaly
266.1202°
Eccentric anomaly
266.04768°
Mean motion
3.85234 °/min
Orbital period
93.45 mins
BSTAR
0.003055
Loading maneuver chart data...
Computing Atmospheric mass density...

Documentation

Showing up to 5 results
|